User: anonymous   Login
Location: Peebles
(55.6412°N, 3.1714°W)
Time: 16:25:56
(UTC+01:00)
Language:

COSMOS 2251 DEB - Orbit

View from above orbital plane
View from above orbital plane
View from above satellite
View from above satellite

Ground track
Ground track

The orbit data is extracted from the following two-line orbital elements,

1 33819U 93036BL  23263.93013454  .00003370  00000-0  13329-2 0  9993
2 33819  74.1817 235.5437 0097705 323.4010  66.5653 14.26743260758662
Epoch (UTC): 20 September 2023 22:19:23
Eccentricity: 0.0097705
inclination: 74.1817°
perigee height: 732 km
apogee height: 873 km
right ascension of ascending node: 235.5437°
argument of perigee: 323.4010°
revolutions per day: 14.26743260
mean anomaly at epoch: 66.5653°
orbit number at epoch: 75866

The dashed part of the orbit path shows where the satellite is in the earth's shadow,  

DLR